(217180) = 2002 RT99

Discovered at Socorro on 2002-09-05 by LINEAR.

Orbit

Orbit type: Main Belt

Note: WebGL enabled browser required.

epoch2023-02-25.0
epoch JD2460000.5
perihelion date2021-03-05.41380
perihelion JD2459278.91380
argument of perihelion (°)221.42080
ascending node (°)166.41209
inclination (°)5.45594
eccentricity0.2218155
perihelion distance (AU)1.8523441
Tisserand w.r.t. Jupiter3.5
ΔV w.r.t. Earth (km/sec)8.6
semimajor axis (AU)2.3803404
mean anomaly (°)193.65711
mean daily motion (°/day)0.26837700
aphelion distance (AU)2.908
period (years)3.67
P-vector [x]0.88360895
P-vector [y]0.45071586
P-vector [z]0.12684812
Q-vector [x]-0.46769247
Q-vector [y]0.83667247
Q-vector [z]0.28503146
absolute magnitude17.14
phase slope0.15
uncertainty0
referenceMPO 745323
observations used337
oppositions15
arc length (days)7593
first opposition used2002
last opposition used2023
residual rms (arc-secs)0.75
perturbers coarse indicatorM-v
perturbers precise indicator003Ek
first observation date used2002-09-05.0
last observation date used2023-06-20.0
computer nameMPCLINUX
JD of orbit computation2456639.522752
perihelion JD uncertainty (days)2.8424E-05
argument of perihelion uncertainty (°)4.4463E-05
ascending node uncertainty (°)4.3320E-05
inclination uncertainty (°)5.7288E-06
eccentricity uncertainty 6.1816E-08
perihelion distance uncertainty (AU)1.4765E-07
Minimum Orbit Intersection Distances (in AU)
for orbit epoch: 2460000.5, reference: E2023-M76
Mercury1.51751
Venus1.128
Earth0.85901
Mars0.42515
Jupiter2.54063
Saturn6.69711
Uranus15.6271
Neptune27.8315

Observations

350 total observations over interval: 2002 09 05.34303 – 2023 06 20.315126
These data are available for download (format description).

Date (UT) J2000 RA J2000 Dec Magn Location Ref
2002 09 05.34303 01 50 42.01 +07 53 28.3 18.9   704 – Lincoln Laboratory ETS, New Mexico MPS 61726
2002 09 05.35704 01 50 42.33 +07 53 25.5 19.6   704 – Lincoln Laboratory ETS, New Mexico MPS 61726
2002 09 05.37106 01 50 42.56 +07 53 22.6 19.6   704 – Lincoln Laboratory ETS, New Mexico MPS 61726
2002 09 05.39948 01 50 43.03 +07 53 15.7 19.4   704 – Lincoln Laboratory ETS, New Mexico MPS 61726
2002 09 07.34907 01 51 18.73 +07 45 05.7 20.0   704 – Lincoln Laboratory ETS, New Mexico MPS 61726
2002 09 07.36322 01 51 18.91 +07 45 02.2 20.0   704 – Lincoln Laboratory ETS, New Mexico MPS 61726
2002 09 07.37732 01 51 19.06 +07 44 57.5 19.9   704 – Lincoln Laboratory ETS, New Mexico MPS 61726
2002 09 07.39148 01 51 19.30 +07 44 54.7 19.4   704 – Lincoln Laboratory ETS, New Mexico MPS 61726
2002 09 14.55283 01 52 23.01 +07 07 16.8 20.2   608 – Haleakala-AMOS MPS 61726
2002 09 14.56350 01 52 22.95 +07 07 11.7 20.2   608 – Haleakala-AMOS MPS 61726
2002 09 14.57420 01 52 22.93 +07 07 08.7 20.8   608 – Haleakala-AMOS MPS 61726
2002 09 17.54185 01 52 18.86 +06 48 13.2 21.0   608 – Haleakala-AMOS MPS 63524
2002 09 17.55278 01 52 18.74 +06 48 08.6 20.1   608 – Haleakala-AMOS MPS 63524
2002 09 17.56355 01 52 18.60 +06 48 03.9 20.8   608 – Haleakala-AMOS MPS 63524
2002 10 02.32330 01 47 46.90 +04 50 39.1 18.4   704 – Lincoln Laboratory ETS, New Mexico MPS 63524
2002 10 02.33823 01 47 46.36 +04 50 30.3 18.7   704 – Lincoln Laboratory ETS, New Mexico MPS 63524
2002 10 02.35409 01 47 45.89 +04 50 21.8 18.4   704 – Lincoln Laboratory ETS, New Mexico MPS 63524
2002 10 02.36923 01 47 45.36 +04 50 14.0 18.5   704 – Lincoln Laboratory ETS, New Mexico MPS 63524
2002 10 02.38457 01 47 44.85 +04 50 06.1 18.8   704 – Lincoln Laboratory ETS, New Mexico MPS 63524
2002 10 03.25599 01 47 17.48 +04 42 17.0 18.1   704 – Lincoln Laboratory ETS, New Mexico MPS 63524
2002 10 03.27101 01 47 16.95 +04 42 08.3 18.4   704 – Lincoln Laboratory ETS, New Mexico MPS 63524
2002 10 03.28595 01 47 16.33 +04 42 01.0 18.3   704 – Lincoln Laboratory ETS, New Mexico MPS 63524
2002 10 03.30088 01 47 15.88 +04 41 52.4 18.7   704 – Lincoln Laboratory ETS, New Mexico MPS 63524
2002 10 03.31579 01 47 15.30 +04 41 44.5 18.8   704 – Lincoln Laboratory ETS, New Mexico MPS 63524
2002 10 06.43576 01 45 27.39 +04 13 20.5 20.8   608 – Haleakala-AMOS MPS 63524
2002 10 06.44655 01 45 26.98 +04 13 14.9 20.6   608 – Haleakala-AMOS MPS 63524
2002 10 06.45774 01 45 26.46 +04 13 07.8 21.0   608 – Haleakala-AMOS MPS 63524
2002 10 11.24832 01 42 19.57 +03 29 05.8 17.9   704 – Lincoln Laboratory ETS, New Mexico MPS 63524
2002 10 11.26334 01 42 18.89 +03 28 57.5 18.1   704 – Lincoln Laboratory ETS, New Mexico MPS 63524
2002 10 11.27827 01 42 18.20 +03 28 48.6 18.2   704 – Lincoln Laboratory ETS, New Mexico MPS 63524
2002 10 11.29323 01 42 17.56 +03 28 40.8 18.4   704 – Lincoln Laboratory ETS, New Mexico MPS 63524
2002 10 11.30823 01 42 16.85 +03 28 32.7 18.1   704 – Lincoln Laboratory ETS, New Mexico MPS 63524
2002 10 29.213050 01 29 38.174 +01 03 17.70 18.81 V 645 – Apache Point-Sloan Digital Sky Survey MPS 80116
2002 10 29.216522 01 29 38.030 +01 03 16.40 19.70   645 – Apache Point-Sloan Digital Sky Survey MPS 80116
2002 10 30.267040 01 28 57.797 +00 56 39.66 19.00 V 645 – Apache Point-Sloan Digital Sky Survey MPS 80116
2002 10 30.270512 01 28 57.652 +00 56 38.42 19.92   645 – Apache Point-Sloan Digital Sky Survey MPS 80116
2002 10 31.24939 01 28 21.40 +00 50 44.8 18.6   704 – Lincoln Laboratory ETS, New Mexico MPS 65916
2002 10 31.26653 01 28 20.73 +00 50 38.7 19.1   704 – Lincoln Laboratory ETS, New Mexico MPS 65916
2002 10 31.28362 01 28 20.04 +00 50 32.4 19.3   704 – Lincoln Laboratory ETS, New Mexico MPS 65916
2002 10 31.30074 01 28 19.35 +00 50 26.1 18.8   704 – Lincoln Laboratory ETS, New Mexico MPS 65916
2002 10 31.31789 01 28 18.69 +00 50 20.2 18.7   704 – Lincoln Laboratory ETS, New Mexico MPS 65916
2002 11 04.49594 01 25 57.10 +00 28 11.7 20.4   608 – Haleakala-AMOS MPS 65916
2002 11 04.50622 01 25 56.73 +00 28 07.7 21.0   608 – Haleakala-AMOS MPS 65916
2002 11 04.51703 01 25 56.38 +00 28 05.1 21.0   608 – Haleakala-AMOS MPS 65916
2002 11 07.21185 01 24 38.70 +00 16 29.8 19.3   704 – Lincoln Laboratory ETS, New Mexico MPS 65916
2002 11 07.22918 01 24 38.12 +00 16 25.7 19.2   704 – Lincoln Laboratory ETS, New Mexico MPS 65916
2002 11 07.24639 01 24 37.60 +00 16 21.3 19.4   704 – Lincoln Laboratory ETS, New Mexico MPS 65916
2002 11 07.26362 01 24 37.16 +00 16 17.4 18.9   704 – Lincoln Laboratory ETS, New Mexico MPS 65916
2004 02 26.41181 12 16 41.57 -00 32 46.1 21.0 R 695 – Kitt Peak MPS 103093
2004 02 26.48872 12 16 38.31 -00 32 16.6   695 – Kitt Peak MPS 103093
2004 03 17.21546 12 00 31.45 +01 50 46.0 21.2 V 691 – Steward Observatory, Kitt Peak-Spacewatch MPS 103093
2004 03 17.24545 12 00 29.81 +01 50 59.7 21.4 V 691 – Steward Observatory, Kitt Peak-Spacewatch MPS 103093
2004 03 17.27441 12 00 28.20 +01 51 13.2 21.0 V 691 – Steward Observatory, Kitt Peak-Spacewatch MPS 103093
2005 07 12.21865 17 04 47.49 -14 30 25.9 19.2 V G96 – Mt. Lemmon Survey MPS 137942
2005 07 12.22657 17 04 47.10 -14 30 27.5 20.0 V G96 – Mt. Lemmon Survey MPS 137942
2005 07 12.23453 17 04 46.77 -14 30 28.1 20.1 V G96 – Mt. Lemmon Survey MPS 137942
2005 07 12.24252 17 04 46.38 -14 30 28.6 20.4 V G96 – Mt. Lemmon Survey MPS 137942
2008 03 31.28239 13 54 03.72 -06 32 54.2 21.7 V 691 – Steward Observatory, Kitt Peak-Spacewatch MPS 244605
2008 03 31.29996 13 54 02.86 -06 32 47.5 21.2 V 691 – Steward Observatory, Kitt Peak-Spacewatch MPS 244605
2008 03 31.31754 13 54 02.00 -06 32 40.5 21.2 V 691 – Steward Observatory, Kitt Peak-Spacewatch MPS 244605
2008 04 13.20284 13 43 00.61 -05 07 48.9 21.5 V 691 – Steward Observatory, Kitt Peak-Spacewatch MPS 246701
2008 04 13.22043 13 42 59.65 -05 07 42.1 20.9 V 691 – Steward Observatory, Kitt Peak-Spacewatch MPS 246701
2008 04 13.23803 13 42 58.68 -05 07 34.9 20.9 V 691 – Steward Observatory, Kitt Peak-Spacewatch MPS 246701
2009 07 18.98941 20 36 04.28 -11 31 16.3 19.4 V J75 – OAM Observatory, La Sagra MPS 289807
2009 07 19.00179 20 36 03.63 -11 31 19.3 19.5 V J75 – OAM Observatory, La Sagra MPS 289807
2009 07 19.01418 20 36 02.93 -11 31 23.0 19.3 V J75 – OAM Observatory, La Sagra MPS 289807
2009 07 27.28963 20 28 27.33 -12 12 37.4 19.4 V 703 – Catalina Sky Survey MPS 290143
2009 07 27.29797 20 28 26.83 -12 12 39.7 19.3 V 703 – Catalina Sky Survey MPS 290143
2009 07 27.30634 20 28 26.32 -12 12 43.1 19.5 V 703 – Catalina Sky Survey MPS 290143
2009 10 17.14241 20 22 10.84 -17 45 08.0 20.4 V G96 – Mt. Lemmon Survey MPS 300479
2009 10 17.14748 20 22 11.20 -17 45 07.8 20.4 V G96 – Mt. Lemmon Survey MPS 300479
2009 10 17.15249 20 22 11.53 -17 45 07.5 20.4 V G96 – Mt. Lemmon Survey MPS 300479
2009 10 22.07677 20 28 14.30 -17 40 16.6 21.9 V G96 – Mt. Lemmon Survey MPS 300479
2009 10 22.08240 20 28 14.70 -17 40 15.8 20.8 V G96 – Mt. Lemmon Survey MPS 300479
2009 10 22.08792 20 28 15.13 -17 40 15.3 21.0 V G96 – Mt. Lemmon Survey MPS 300479
2009 10 22.09345 20 28 15.56 -17 40 14.7 21.1 V G96 – Mt. Lemmon Survey MPS 300479
2011 01 30.40349 10 06 46.387 +07 50 09.99 20.8 w F51 – Pan-STARRS 1, Haleakala MPS 379929
2011 01 30.43437 10 06 44.741 +07 50 21.71 20.9 w F51 – Pan-STARRS 1, Haleakala MPS 379929
2011 01 30.44914 10 06 43.947 +07 50 27.27 20.9 w F51 – Pan-STARRS 1, Haleakala MPS 379929
2011 02 04.44931 10 02 15.731 +08 23 28.26 20.7 w F51 – Pan-STARRS 1, Haleakala MPS 379929
2011 02 04.46360 10 02 14.902 +08 23 34.14 20.8 w F51 – Pan-STARRS 1, Haleakala MPS 379929
2011 02 04.47799 10 02 14.066 +08 23 40.01 20.7 w F51 – Pan-STARRS 1, Haleakala MPS 379929
2011 02 04.49241 10 02 13.244 +08 23 46.00 20.7 w F51 – Pan-STARRS 1, Haleakala MPS 379929
2011 02 05.43739 10 01 20.471 +08 30 18.16 20.8 w F51 – Pan-STARRS 1, Haleakala MPS 379556
2011 02 05.45164 10 01 19.641 +08 30 24.13 20.7 w F51 – Pan-STARRS 1, Haleakala MPS 379556
2011 02 05.46610 10 01 18.795 +08 30 30.16 20.7 w F51 – Pan-STARRS 1, Haleakala MPS 379556
2011 02 10.32715 09 56 39.44 +09 05 09.3 20.3 V G96 – Mt. Lemmon Survey MPS 371252
2011 02 10.33409 09 56 39.01 +09 05 12.3 20.3 V G96 – Mt. Lemmon Survey MPS 371252
